Time,TemperatureF,DewpointF,PressureIn,WindDirection,WindDirectionDegrees,WindSpeedMPH,WindSpeedGustMPH,Humidity,HourlyPrecipIn,Conditions,Clouds,dailyrainin,SoftwareType,DateUTC
2013-02-10 00:03:00,38.3,37.0,29.82,SW,225,0.7,2.2,95,0.00,,,0.00,pywws,2013-02-10 00:03:00,
2013-02-10 00:08:00,38.1,36.8,29.82,SW,225,0.7,3.8,95,0.00,,,0.00,pywws,2013-02-10 00:08:00,
2013-02-10 00:13:00,38.3,37.0,29.82,West,270,0.7,2.2,95,0.00,,,0.00,pywws,2013-02-10 00:13:00,
2013-02-10 00:18:00,38.1,36.8,29.82,North,-999,0.0,1.6,95,0.00,,,0.00,pywws,2013-02-10 00:18:00,
2013-02-10 00:23:00,38.1,36.8,29.82,North,-999,0.0,0.7,95,0.00,,,0.00,pywws,2013-02-10 00:23:00,
2013-02-10 00:28:00,38.1,36.8,29.82,North,-999,0.0,1.6,95,0.00,,,0.00,pywws,2013-02-10 00:28:00,
2013-02-10 00:33:00,38.1,36.8,29.81,West,270,0.7,1.6,95,0.00,,,0.00,pywws,2013-02-10 00:33:00,
2013-02-10 00:38:00,38.1,37.1,29.81,North,-999,0.0,1.6,96,0.00,,,0.00,pywws,2013-02-10 00:38:00,
2013-02-10 00:43:00,38.1,36.8,29.81,West,270,1.6,3.1,95,0.00,,,0.00,pywws,2013-02-10 00:43:00,
2013-02-10 00:48:00,38.1,36.8,29.81,North,-999,0.0,1.6,95,0.00,,,0.00,pywws,2013-02-10 00:48:00,
2013-02-10 00:53:00,37.9,36.6,29.80,North,-999,0.0,0.7,95,0.00,,,0.00,pywws,2013-02-10 00:53:00,
2013-02-10 01:03:00,37.9,36.6,29.81,North,-999,0.0,0.7,95,0.00,,,0.00,pywws,2013-02-10 01:03:00,
2013-02-10 01:08:00,37.9,36.6,29.80,North,-999,0.0,0.7,95,0.00,,,0.00,pywws,2013-02-10 01:08:00,
2013-02-10 01:13:00,37.8,36.5,29.80,North,-999,0.0,0.7,95,0.00,,,0.00,pywws,2013-02-10 01:13:00,
2013-02-10 01:18:00,37.8,36.5,29.79,North,-999,0.0,0.0,95,0.00,,,0.00,pywws,2013-02-10 01:18:00,
2013-02-10 01:23:00,37.6,36.3,29.79,North,-999,0.0,0.0,95,0.00,,,0.00,pywws,2013-02-10 01:23:00,
2013-02-10 01:28:00,37.6,36.3,29.79,North,-999,0.0,1.6,95,0.00,,,0.00,pywws,2013-02-10 01:28:00,
2013-02-10 01:33:00,37.6,36.3,29.78,North,-999,0.0,0.7,95,0.00,,,0.00,pywws,2013-02-10 01:33:00,
2013-02-10 01:38:00,37.4,36.4,29.78,South,180,0.7,2.2,96,0.00,,,0.00,pywws,2013-02-10 01:38:00,
2013-02-10 01:43:00,37.4,36.4,29.78,South,180,0.7,1.6,96,0.00,,,0.00,pywws,2013-02-10 01:43:00,
2013-02-10 01:48:00,37.4,36.4,29.77,North,-999,0.0,1.6,96,0.00,,,0.00,pywws,2013-02-10 01:48:00,
2013-02-10 01:53:00,37.2,36.2,29.77,North,-999,0.0,0.7,96,0.00,,,0.00,pywws,2013-02-10 01:53:00,
2013-02-10 02:03:00,37.2,36.2,29.77,North,-999,0.0,0.7,96,0.00,,,0.00,pywws,2013-02-10 02:03:00,
2013-02-10 02:08:00,37.0,36.0,29.76,South,180,2.2,3.8,96,0.00,,,0.00,pywws,2013-02-10 02:08:00,
2013-02-10 02:13:00,37.0,36.0,29.76,North,-999,0.0,1.6,96,0.00,,,0.00,pywws,2013-02-10 02:13:00,
2013-02-10 02:18:00,37.0,36.0,29.75,North,-999,0.0,0.0,96,0.00,,,0.00,pywws,2013-02-10 02:18:00,
2013-02-10 02:23:00,37.0,36.0,29.75,North,-999,0.0,0.7,96,0.00,,,0.00,pywws,2013-02-10 02:23:00,
2013-02-10 02:28:00,36.9,35.8,29.75,North,-999,0.0,0.0,96,0.00,,,0.00,pywws,2013-02-10 02:28:00,
2013-02-10 02:33:00,36.9,35.8,29.75,North,-999,0.0,1.6,96,0.00,,,0.00,pywws,2013-02-10 02:33:00,
2013-02-10 02:38:00,36.9,35.8,29.74,North,-999,0.0,0.7,96,0.00,,,0.00,pywws,2013-02-10 02:38:00,
2013-02-10 02:43:00,36.9,35.8,29.74,SW,225,0.7,2.2,96,0.00,,,0.00,pywws,2013-02-10 02:43:00,
2013-02-10 02:48:00,36.7,35.6,29.73,SW,225,0.7,2.2,96,0.00,,,0.00,pywws,2013-02-10 02:48:00,
2013-02-10 02:53:00,36.7,35.6,29.73,North,-999,0.0,1.6,96,0.00,,,0.00,pywws,2013-02-10 02:53:00,
2013-02-10 03:03:00,36.7,35.6,29.72,South,180,0.7,2.2,96,0.00,,,0.00,pywws,2013-02-10 03:03:00,
2013-02-10 03:08:00,36.7,35.6,29.72,North,-999,0.0,0.7,96,0.00,,,0.00,pywws,2013-02-10 03:08:00,
2013-02-10 03:13:00,36.7,35.6,29.72,North,-999,0.0,0.7,96,0.00,,,0.00,pywws,2013-02-10 03:13:00,
2013-02-10 03:18:00,36.7,35.6,29.72,North,-999,0.0,2.2,96,0.00,,,0.00,pywws,2013-02-10 03:18:00,
2013-02-10 03:23:00,36.7,35.6,29.70,North,-999,0.0,2.2,96,0.00,,,0.00,pywws,2013-02-10 03:23:00,
2013-02-10 03:28:00,36.7,35.6,29.70,SSW,202,0.7,3.8,96,0.00,,,0.00,pywws,2013-02-10 03:28:00,
2013-02-10 03:33:00,36.7,35.6,29.70,North,-999,0.0,0.7,96,0.00,,,0.00,pywws,2013-02-10 03:33:00,
2013-02-10 03:38:00,36.7,35.6,29.70,North,-999,0.0,1.6,96,0.00,,,0.00,pywws,2013-02-10 03:38:00,
2013-02-10 03:43:00,36.7,35.4,29.70,South,180,1.6,3.1,95,0.00,,,0.00,pywws,2013-02-10 03:43:00,
2013-02-10 03:48:00,36.7,35.4,29.70,North,-999,0.0,1.6,95,0.00,,,0.00,pywws,2013-02-10 03:48:00,
2013-02-10 03:53:00,36.7,35.4,29.70,South,180,0.7,1.6,95,0.00,,,0.00,pywws,2013-02-10 03:53:00,
2013-02-10 04:03:00,36.7,35.4,29.70,North,-999,0.0,1.6,95,0.00,,,0.00,pywws,2013-02-10 04:03:00,
2013-02-10 04:08:00,36.9,35.6,29.68,SW,225,0.7,2.2,95,0.00,,,0.00,pywws,2013-02-10 04:08:00,
2013-02-10 04:13:00,36.9,35.6,29.68,North,-999,0.0,2.2,95,0.00,,,0.00,pywws,2013-02-10 04:13:00,
2013-02-10 04:18:00,36.9,35.3,29.67,North,-999,0.0,1.6,94,0.00,,,0.00,pywws,2013-02-10 04:18:00,
2013-02-10 04:23:00,36.9,35.3,29.68,SW,225,0.7,2.2,94,0.00,,,0.00,pywws,2013-02-10 04:23:00,
2013-02-10 04:28:00,36.9,35.3,29.67,North,-999,0.0,2.2,94,0.00,,,0.00,pywws,2013-02-10 04:28:00,
2013-02-10 04:33:00,36.9,35.3,29.67,South,180,0.7,3.8,94,0.00,,,0.00,pywws,2013-02-10 04:33:00,
2013-02-10 04:38:00,36.9,35.3,29.67,South,180,0.7,3.1,94,0.00,,,0.00,pywws,2013-02-10 04:38:00,
2013-02-10 04:43:00,36.9,35.0,29.67,SSE,158,1.6,3.1,93,0.00,,,0.00,pywws,2013-02-10 04:43:00,
2013-02-10 04:48:00,36.9,35.0,29.67,SW,225,1.6,3.1,93,0.00,,,0.00,pywws,2013-02-10 04:48:00,
2013-02-10 04:53:00,36.9,35.0,29.66,NW,315,1.6,5.4,93,0.00,,,0.00,pywws,2013-02-10 04:53:00,
2013-02-10 05:03:00,37.0,35.2,29.65,South,180,0.7,2.2,93,0.00,,,0.00,pywws,2013-02-10 05:03:00,
2013-02-10 05:08:00,37.0,35.2,29.65,SW,225,0.7,3.1,93,0.00,,,0.00,pywws,2013-02-10 05:08:00,
2013-02-10 05:13:00,37.0,35.2,29.65,SW,225,0.7,3.1,93,0.00,,,0.00,pywws,2013-02-10 05:13:00,
2013-02-10 05:18:00,37.0,35.2,29.65,South,180,1.6,5.4,93,0.00,,,0.00,pywws,2013-02-10 05:18:00,
2013-02-10 05:23:00,37.0,35.2,29.65,North,-999,0.0,2.2,93,0.00,,,0.00,pywws,2013-02-10 05:23:00,
2013-02-10 05:28:00,36.9,35.0,29.64,SW,225,1.6,3.1,93,0.00,,,0.00,pywws,2013-02-10 05:28:00,
2013-02-10 05:33:00,36.9,35.0,29.64,SSE,158,1.6,5.4,93,0.00,,,0.00,pywws,2013-02-10 05:33:00,
2013-02-10 05:38:00,36.9,35.0,29.64,East,90,0.7,3.8,93,0.00,,,0.00,pywws,2013-02-10 05:38:00,
2013-02-10 05:43:00,36.9,35.0,29.64,South,180,0.7,2.2,93,0.00,,,0.00,pywws,2013-02-10 05:43:00,
2013-02-10 05:48:00,36.9,35.3,29.63,South,180,0.7,2.2,94,0.00,,,0.00,pywws,2013-02-10 05:48:00,
2013-02-10 05:53:00,36.7,35.1,29.62,South,180,0.7,3.1,94,0.00,,,0.00,pywws,2013-02-10 05:53:00,
2013-02-10 06:03:00,36.7,35.1,29.63,South,180,0.7,3.1,94,0.00,,,0.00,pywws,2013-02-10 06:03:00,
2013-02-10 06:08:00,36.7,35.1,29.62,SW,225,1.6,3.8,94,0.00,,,0.00,pywws,2013-02-10 06:08:00,
2013-02-10 06:13:00,36.7,35.4,29.62,South,180,1.6,3.8,95,0.00,,,0.00,pywws,2013-02-10 06:13:00,
2013-02-10 06:18:00,36.7,35.4,29.62,SW,225,0.7,3.8,95,0.00,,,0.00,pywws,2013-02-10 06:18:00,
2013-02-10 06:23:00,36.7,35.4,29.61,North,-999,0.0,1.6,95,0.00,,,0.00,pywws,2013-02-10 06:23:00,
2013-02-10 06:28:00,36.7,35.4,29.62,SE,135,1.6,3.8,95,0.00,,,0.00,pywws,2013-02-10 06:28:00,
2013-02-10 06:33:00,36.7,35.4,29.61,North,-999,0.0,1.6,95,0.00,,,0.00,pywws,2013-02-10 06:33:00,
2013-02-10 06:38:00,36.7,35.4,29.61,SW,225,1.6,3.1,95,0.00,,,0.00,pywws,2013-02-10 06:38:00,
2013-02-10 06:43:00,36.5,35.2,29.61,North,-999,0.0,3.1,95,0.00,,,0.00,pywws,2013-02-10 06:43:00,
2013-02-10 06:48:00,36.5,35.2,29.61,SE,135,0.7,3.8,95,0.00,,,0.00,pywws,2013-02-10 06:48:00,
2013-02-10 06:53:00,36.5,34.9,29.60,North,-999,0.0,2.2,94,0.00,,,0.00,pywws,2013-02-10 06:53:00,
2013-02-10 07:03:00,36.5,34.9,29.60,SW,225,0.7,3.1,94,0.00,,,0.00,pywws,2013-02-10 07:03:00,
2013-02-10 07:08:00,36.5,34.7,29.60,North,-999,0.0,1.6,93,0.00,,,0.00,pywws,2013-02-10 07:08:00,
2013-02-10 07:13:00,36.5,34.7,29.59,North,-999,0.0,0.0,93,0.00,,,0.00,pywws,2013-02-10 07:13:00,
2013-02-10 07:18:00,36.3,34.5,29.59,South,180,0.7,2.2,93,0.00,,,0.00,pywws,2013-02-10 07:18:00,
2013-02-10 07:23:00,36.5,34.4,29.59,North,-999,0.0,1.6,92,0.00,,,0.00,pywws,2013-02-10 07:23:00,
2013-02-10 07:28:00,36.5,34.1,29.59,South,180,0.7,3.1,91,0.00,,,0.00,pywws,2013-02-10 07:28:00,
2013-02-10 07:33:00,36.7,34.3,29.58,North,-999,0.0,0.7,91,0.00,,,0.00,pywws,2013-02-10 07:33:00,
2013-02-10 07:38:00,36.7,34.3,29.58,North,-999,0.0,1.6,91,0.00,,,0.00,pywws,2013-02-10 07:38:00,
2013-02-10 07:43:00,36.5,33.9,29.59,East,90,0.7,2.2,90,0.00,,,0.00,pywws,2013-02-10 07:43:00,
2013-02-10 07:48:00,36.7,34.0,29.58,SW,225,0.7,2.2,90,0.00,,,0.00,pywws,2013-02-10 07:48:00,
2013-02-10 07:53:00,36.7,34.0,29.58,North,-999,0.0,2.2,90,0.00,,,0.00,pywws,2013-02-10 07:53:00,
2013-02-10 08:03:00,36.7,34.0,29.58,North,-999,0.0,1.6,90,0.00,,,0.00,pywws,2013-02-10 08:03:00,
2013-02-10 08:08:00,36.7,33.7,29.57,NW,315,0.7,2.2,89,0.00,,,0.00,pywws,2013-02-10 08:08:00,
2013-02-10 08:13:00,36.9,33.9,29.57,North,-999,0.0,0.7,89,0.00,,,0.00,pywws,2013-02-10 08:13:00,
2013-02-10 08:18:00,36.9,33.6,29.57,North,-999,0.0,1.6,88,0.00,,,0.00,pywws,2013-02-10 08:18:00,
2013-02-10 08:23:00,36.9,33.6,29.57,West,270,0.7,3.1,88,0.00,,,0.00,pywws,2013-02-10 08:23:00,
2013-02-10 08:28:00,36.9,33.6,29.57,North,0,0.7,3.1,88,0.00,,,0.00,pywws,2013-02-10 08:28:00,
2013-02-10 08:33:00,36.7,33.7,29.57,North,-999,0.0,2.2,89,0.00,,,0.00,pywws,2013-02-10 08:33:00,
2013-02-10 08:38:00,36.7,33.7,29.57,SW,225,0.7,2.2,89,0.00,,,0.00,pywws,2013-02-10 08:38:00,
2013-02-10 08:43:00,36.5,33.6,29.56,North,-999,0.0,1.6,89,0.00,,,0.00,pywws,2013-02-10 08:43:00,
2013-02-10 08:48:00,36.5,33.6,29.56,North,-999,0.0,1.6,89,0.00,,,0.00,pywws,2013-02-10 08:48:00,
2013-02-10 08:53:00,36.5,33.6,29.56,North,-999,0.0,1.6,89,0.00,,,0.00,pywws,2013-02-10 08:53:00,
2013-02-10 09:03:00,36.5,33.6,29.56,North,-999,0.0,1.6,89,0.00,,,0.00,pywws,2013-02-10 09:03:00,
2013-02-10 09:08:00,36.5,33.9,29.55,North,-999,0.0,1.6,90,0.00,,,0.00,pywws,2013-02-10 09:08:00,
2013-02-10 09:13:00,36.5,33.9,29.55,West,270,1.6,3.8,90,0.00,,,0.00,pywws,2013-02-10 09:13:00,
2013-02-10 09:18:00,36.5,33.9,29.55,SE,135,1.6,4.5,90,0.00,,,0.00,pywws,2013-02-10 09:18:00,
2013-02-10 09:23:00,36.5,33.9,29.55,West,270,1.6,3.1,90,0.00,,,0.00,pywws,2013-02-10 09:23:00,
2013-02-10 09:28:00,36.7,34.0,29.55,South,180,1.6,3.1,90,0.00,,,0.00,pywws,2013-02-10 09:28:00,
2013-02-10 09:33:00,36.7,34.0,29.54,SSE,158,0.7,2.2,90,0.00,,,0.00,pywws,2013-02-10 09:33:00,
2013-02-10 09:38:00,36.9,33.9,29.54,SW,225,0.7,2.2,89,0.00,,,0.00,pywws,2013-02-10 09:38:00,
2013-02-10 09:43:00,36.9,33.9,29.54,South,180,0.7,3.8,89,0.00,,,0.00,pywws,2013-02-10 09:43:00,
2013-02-10 09:48:00,36.9,33.9,29.54,North,-999,0.0,2.2,89,0.00,,,0.00,pywws,2013-02-10 09:48:00,
2013-02-10 09:53:00,37.0,34.1,29.54,South,180,1.6,3.1,89,0.00,,,0.00,pywws,2013-02-10 09:53:00,
2013-02-10 10:03:00,37.0,34.1,29.54,North,-999,0.0,1.6,89,0.00,,,0.00,pywws,2013-02-10 10:03:00,
2013-02-10 10:08:00,37.2,34.0,29.54,West,270,0.7,3.1,88,0.00,,,0.00,pywws,2013-02-10 10:08:00,
2013-02-10 10:13:00,37.2,34.0,29.53,North,-999,0.0,2.2,88,0.00,,,0.00,pywws,2013-02-10 10:13:00,
2013-02-10 10:18:00,37.4,34.2,29.53,North,-999,0.0,1.6,88,0.00,,,0.00,pywws,2013-02-10 10:18:00,
2013-02-10 10:23:00,37.6,34.1,29.53,NW,315,1.6,3.8,87,0.00,,,0.00,pywws,2013-02-10 10:23:00,
2013-02-10 10:28:00,37.6,34.1,29.53,North,-999,0.0,3.1,87,0.00,,,0.00,pywws,2013-02-10 10:28:00,
2013-02-10 10:33:00,37.6,34.1,29.53,SW,225,1.6,4.5,87,0.00,,,0.00,pywws,2013-02-10 10:33:00,
2013-02-10 10:38:00,37.6,33.8,29.52,West,270,0.7,3.1,86,0.00,,,0.00,pywws,2013-02-10 10:38:00,
2013-02-10 10:43:00,37.6,33.8,29.52,North,-999,0.0,2.2,86,0.00,,,0.00,pywws,2013-02-10 10:43:00,
2013-02-10 10:48:00,37.6,33.8,29.52,NW,315,1.6,4.5,86,0.00,,,0.00,pywws,2013-02-10 10:48:00,
2013-02-10 10:53:00,37.6,33.8,29.52,NW,315,1.6,4.5,86,0.00,,,0.00,pywws,2013-02-10 10:53:00,
2013-02-10 11:03:00,37.6,33.8,29.52,North,0,0.7,2.2,86,0.00,,,0.00,pywws,2013-02-10 11:03:00,
2013-02-10 11:08:00,37.6,33.8,29.52,NW,315,0.7,1.6,86,0.00,,,0.00,pywws,2013-02-10 11:08:00,
2013-02-10 11:13:00,37.6,34.1,29.52,NW,315,0.7,2.2,87,0.00,,,0.00,pywws,2013-02-10 11:13:00,
2013-02-10 11:18:00,37.6,34.1,29.52,North,-999,0.0,2.2,87,0.00,,,0.00,pywws,2013-02-10 11:18:00,
2013-02-10 11:23:00,37.8,34.0,29.52,North,-999,0.0,1.6,86,0.00,,,0.00,pywws,2013-02-10 11:23:00,
2013-02-10 11:28:00,37.8,34.0,29.52,North,0,0.7,3.1,86,0.00,,,0.00,pywws,2013-02-10 11:28:00,
2013-02-10 11:33:00,37.8,33.7,29.52,NW,315,0.7,2.2,85,0.00,,,0.00,pywws,2013-02-10 11:33:00,
2013-02-10 11:38:00,37.8,33.7,29.52,SE,135,1.6,4.5,85,0.00,,,0.00,pywws,2013-02-10 11:38:00,
2013-02-10 11:43:00,37.9,33.8,29.52,West,270,1.6,5.4,85,0.00,,,0.00,pywws,2013-02-10 11:43:00,
2013-02-10 11:48:00,37.9,33.5,29.52,West,270,0.7,1.6,84,0.00,,,0.00,pywws,2013-02-10 11:48:00,
2013-02-10 11:53:00,37.9,33.2,29.51,North,0,2.2,6.0,83,0.00,,,0.00,pywws,2013-02-10 11:53:00,
2013-02-10 12:04:00,38.1,33.4,29.51,West,270,0.7,2.2,83,0.00,,,0.00,pywws,2013-02-10 12:04:00,
2013-02-10 12:09:00,38.3,33.6,29.51,North,0,0.7,3.1,83,0.00,,,0.00,pywws,2013-02-10 12:09:00,
2013-02-10 12:14:00,38.5,33.5,29.51,NE,45,2.2,4.5,82,0.00,,,0.00,pywws,2013-02-10 12:14:00,
2013-02-10 12:20:00,38.7,33.0,29.51,SW,225,0.7,6.0,80,0.00,,,0.00,pywws,2013-02-10 12:20:00,
2013-02-10 12:25:00,38.8,33.2,29.51,North,-999,0.0,1.6,80,0.00,,,0.00,pywws,2013-02-10 12:25:00,
2013-02-10 12:30:00,39.2,33.6,29.50,North,-999,0.0,1.6,80,0.00,,,0.00,pywws,2013-02-10 12:30:00,
2013-02-10 12:36:00,39.2,33.6,29.50,North,0,2.2,5.4,80,0.00,,,0.00,pywws,2013-02-10 12:36:00,
2013-02-10 12:41:00,39.0,33.7,29.50,West,270,1.6,3.8,81,0.00,,,0.00,pywws,2013-02-10 12:41:00,
2013-02-10 12:46:00,38.7,34.0,29.49,South,180,1.6,6.9,83,0.00,,,0.00,pywws,2013-02-10 12:46:00,
2013-02-10 12:52:00,38.3,34.2,29.49,SW,225,2.2,5.4,85,0.00,,,0.00,pywws,2013-02-10 12:52:00,
2013-02-10 13:02:00,38.1,34.3,29.49,NW,315,1.6,3.8,86,0.00,,,0.00,pywws,2013-02-10 13:02:00,
2013-02-10 13:08:00,38.3,35.1,29.49,NW,315,0.7,2.2,88,0.00,,,0.00,pywws,2013-02-10 13:08:00,
2013-02-10 13:13:00,38.5,35.0,29.49,South,180,1.6,6.0,87,0.00,,,0.00,pywws,2013-02-10 13:13:00,
2013-02-10 13:18:00,38.7,35.1,29.48,South,180,3.1,6.0,87,0.00,,,0.00,pywws,2013-02-10 13:18:00,
2013-02-10 13:24:00,38.8,35.0,29.48,North,0,2.2,4.5,86,0.00,,,0.00,pywws,2013-02-10 13:24:00,
2013-02-10 13:29:00,38.8,35.0,29.48,SW,225,1.6,4.5,86,0.00,,,0.00,pywws,2013-02-10 13:29:00,
2013-02-10 13:34:00,39.0,35.2,29.48,South,180,2.2,4.5,86,0.00,,,0.00,pywws,2013-02-10 13:34:00,
2013-02-10 13:40:00,39.2,35.4,29.48,NE,45,1.6,3.1,86,0.00,,,0.00,pywws,2013-02-10 13:40:00,
2013-02-10 13:45:00,39.4,35.3,29.48,East,90,0.7,3.8,85,0.00,,,0.00,pywws,2013-02-10 13:45:00,
2013-02-10 13:50:00,39.6,35.4,29.47,West,270,1.6,3.8,85,0.00,,,0.00,pywws,2013-02-10 13:50:00,
2013-02-10 14:01:00,39.7,35.0,29.47,SW,225,3.1,6.9,83,0.00,,,0.00,pywws,2013-02-10 14:01:00,
2013-02-10 14:06:00,39.7,35.0,29.47,NW,315,3.1,9.2,83,0.00,,,0.00,pywws,2013-02-10 14:06:00,
2013-02-10 14:12:00,39.6,34.8,29.47,South,180,1.6,3.1,83,0.00,,,0.00,pywws,2013-02-10 14:12:00,
2013-02-10 14:17:00,39.6,35.1,29.47,SW,225,2.2,5.4,84,0.00,,,0.00,pywws,2013-02-10 14:17:00,
2013-02-10 14:22:00,39.6,35.1,29.47,North,-999,0.0,1.6,84,0.00,,,0.00,pywws,2013-02-10 14:22:00,
2013-02-10 14:28:00,39.4,35.5,29.46,SW,225,0.7,3.1,86,0.00,,,0.00,pywws,2013-02-10 14:28:00,
2013-02-10 14:33:00,39.4,35.8,29.46,SW,225,2.2,4.5,87,0.00,,,0.00,pywws,2013-02-10 14:33:00,
2013-02-10 14:38:00,39.2,35.7,29.46,North,-999,0.0,2.2,87,0.00,,,0.00,pywws,2013-02-10 14:38:00,
2013-02-10 14:44:00,39.2,35.9,29.46,SE,135,0.7,2.2,88,0.00,,,0.00,pywws,2013-02-10 14:44:00,
2013-02-10 14:49:00,39.2,35.9,29.46,SW,225,1.6,6.0,88,0.00,,,0.00,pywws,2013-02-10 14:49:00,
2013-02-10 15:00:00,39.2,36.2,29.46,North,-999,0.0,1.6,89,0.00,,,0.00,pywws,2013-02-10 15:00:00,
2013-02-10 15:05:00,39.4,36.7,29.45,West,270,2.2,4.5,90,0.00,,,0.00,pywws,2013-02-10 15:05:00,
2013-02-10 15:10:00,39.4,36.7,29.45,NW,315,0.7,2.2,90,0.00,,,0.00,pywws,2013-02-10 15:10:00,
2013-02-10 15:16:00,39.4,36.7,29.45,NW,315,1.6,3.8,90,0.00,,,0.00,pywws,2013-02-10 15:16:00,
2013-02-10 15:21:00,39.4,36.7,29.45,North,-999,0.0,2.2,90,0.00,,,0.00,pywws,2013-02-10 15:21:00,
2013-02-10 15:26:00,39.4,36.7,29.45,North,-999,0.0,2.2,90,0.00,,,0.00,pywws,2013-02-10 15:26:00,
2013-02-10 15:32:00,39.4,37.0,29.45,South,180,0.7,2.2,91,0.00,,,0.00,pywws,2013-02-10 15:32:00,
2013-02-10 15:37:00,39.4,37.3,29.44,SW,225,0.7,2.2,92,0.00,,,0.00,pywws,2013-02-10 15:37:00,
2013-02-10 15:42:00,39.2,37.1,29.44,South,180,1.6,3.1,92,0.00,,,0.00,pywws,2013-02-10 15:42:00,
2013-02-10 15:48:00,39.4,37.5,29.44,NW,315,0.7,2.2,93,0.00,,,0.00,pywws,2013-02-10 15:48:00,
2013-02-10 15:53:00,39.4,37.5,29.44,SW,225,0.7,2.2,93,0.00,,,0.00,pywws,2013-02-10 15:53:00,
2013-02-10 16:04:00,39.4,37.5,29.44,SW,225,1.6,3.8,93,0.00,,,0.00,pywws,2013-02-10 16:04:00,
2013-02-10 16:09:00,39.4,37.3,29.43,West,270,2.2,6.0,92,0.00,,,0.00,pywws,2013-02-10 16:09:00,
2013-02-10 16:14:00,39.6,37.2,29.43,South,180,1.6,4.5,91,0.00,,,0.00,pywws,2013-02-10 16:14:00,
2013-02-10 16:20:00,39.4,37.0,29.43,South,180,2.2,7.6,91,0.00,,,0.00,pywws,2013-02-10 16:20:00,
2013-02-10 16:25:00,39.4,37.0,29.43,SW,225,2.2,4.5,91,0.00,,,0.00,pywws,2013-02-10 16:25:00,
2013-02-10 16:30:00,39.4,37.0,29.43,West,270,2.2,4.5,91,0.00,,,0.00,pywws,2013-02-10 16:30:00,
2013-02-10 16:36:00,39.2,36.8,29.43,South,180,1.6,4.5,91,0.00,,,0.00,pywws,2013-02-10 16:36:00,
2013-02-10 16:41:00,39.2,36.8,29.43,West,270,2.2,5.4,91,0.00,,,0.00,pywws,2013-02-10 16:41:00,
2013-02-10 16:46:00,39.2,36.8,29.43,NW,315,2.2,6.9,91,0.00,,,0.00,pywws,2013-02-10 16:46:00,
2013-02-10 16:52:00,39.2,36.8,29.43,South,180,1.6,4.5,91,0.00,,,0.00,pywws,2013-02-10 16:52:00,
2013-02-10 17:02:00,39.2,36.8,29.43,North,0,1.6,3.1,91,0.00,,,0.00,pywws,2013-02-10 17:02:00,
2013-02-10 17:08:00,39.2,37.1,29.43,West,270,1.6,3.1,92,0.00,,,0.00,pywws,2013-02-10 17:08:00,
2013-02-10 17:13:00,39.2,37.1,29.43,NE,45,0.7,3.8,92,0.00,,,0.00,pywws,2013-02-10 17:13:00,
2013-02-10 17:18:00,39.2,37.3,29.42,SW,225,3.8,8.3,93,0.00,,,0.00,pywws,2013-02-10 17:18:00,
2013-02-10 17:24:00,39.2,37.3,29.43,NW,315,3.1,6.0,93,0.00,,,0.00,pywws,2013-02-10 17:24:00,
2013-02-10 17:29:00,39.2,37.6,29.43,West,270,2.2,3.8,94,0.00,,,0.00,pywws,2013-02-10 17:29:00,
2013-02-10 17:34:00,39.2,37.6,29.43,West,270,1.6,3.1,94,0.00,,,0.00,pywws,2013-02-10 17:34:00,
2013-02-10 17:39:00,39.4,37.8,29.43,SW,225,1.6,5.4,94,0.00,,,0.00,pywws,2013-02-10 17:39:00,
2013-02-10 17:44:00,39.4,37.8,29.43,NW,315,1.6,4.5,94,0.00,,,0.00,pywws,2013-02-10 17:44:00,
2013-02-10 17:49:00,39.4,37.8,29.43,West,270,1.6,3.8,94,0.00,,,0.00,pywws,2013-02-10 17:49:00,
2013-02-10 17:54:00,39.6,37.7,29.43,North,0,1.6,4.5,93,0.00,,,0.00,pywws,2013-02-10 17:54:00,
2013-02-10 18:04:00,39.7,37.9,29.43,NW,315,1.6,3.1,93,0.00,,,0.00,pywws,2013-02-10 18:04:00,
2013-02-10 18:09:00,39.7,37.6,29.43,NW,315,0.7,3.1,92,0.00,,,0.00,pywws,2013-02-10 18:09:00,
2013-02-10 18:14:00,39.7,37.6,29.43,North,-999,0.0,1.6,92,0.00,,,0.00,pywws,2013-02-10 18:14:00,
2013-02-10 18:19:00,39.6,37.4,29.44,NW,315,0.7,3.1,92,0.00,,,0.00,pywws,2013-02-10 18:19:00,
2013-02-10 18:24:00,39.6,37.4,29.44,NE,45,1.6,3.1,92,0.00,,,0.00,pywws,2013-02-10 18:24:00,
2013-02-10 18:29:00,39.6,37.4,29.44,NW,315,2.2,4.5,92,0.00,,,0.00,pywws,2013-02-10 18:29:00,
2013-02-10 18:34:00,39.6,37.4,29.44,NW,315,3.8,11.4,92,0.00,,,0.00,pywws,2013-02-10 18:34:00,
2013-02-10 18:39:00,39.4,37.3,29.44,SE,135,0.7,2.2,92,0.00,,,0.00,pywws,2013-02-10 18:39:00,
2013-02-10 18:44:00,39.4,37.3,29.44,North,-999,0.0,2.2,92,0.00,,,0.00,pywws,2013-02-10 18:44:00,
2013-02-10 18:49:00,39.4,37.3,29.44,North,-999,0.0,1.6,92,0.00,,,0.00,pywws,2013-02-10 18:49:00,
2013-02-10 18:54:00,39.2,37.1,29.45,North,-999,0.0,1.6,92,0.00,,,0.00,pywws,2013-02-10 18:54:00,
2013-02-10 19:04:00,39.2,37.1,29.44,North,-999,0.0,2.2,92,0.00,,,0.00,pywws,2013-02-10 19:04:00,
2013-02-10 19:09:00,39.0,37.2,29.44,SW,225,0.7,3.8,93,0.00,,,0.00,pywws,2013-02-10 19:09:00,
2013-02-10 19:14:00,39.0,37.2,29.44,SW,225,0.7,2.2,93,0.00,,,0.00,pywws,2013-02-10 19:14:00,
2013-02-10 19:19:00,39.0,37.2,29.45,NW,315,0.7,3.1,93,0.00,,,0.00,pywws,2013-02-10 19:19:00,
2013-02-10 19:24:00,39.0,37.2,29.45,SW,225,2.2,3.8,93,0.00,,,0.00,pywws,2013-02-10 19:24:00,
2013-02-10 19:29:00,39.0,37.2,29.45,SW,225,0.7,2.2,93,0.00,,,0.00,pywws,2013-02-10 19:29:00,
2013-02-10 19:34:00,39.0,37.2,29.45,SW,225,1.6,3.8,93,0.00,,,0.00,pywws,2013-02-10 19:34:00,
2013-02-10 19:39:00,39.0,37.2,29.45,South,180,2.2,6.9,93,0.00,,,0.00,pywws,2013-02-10 19:39:00,
2013-02-10 19:44:00,39.2,37.3,29.45,South,180,2.2,8.3,93,0.00,,,0.00,pywws,2013-02-10 19:44:00,
2013-02-10 19:49:00,39.2,37.3,29.45,South,180,1.6,3.1,93,0.00,,,0.00,pywws,2013-02-10 19:49:00,
2013-02-10 19:54:00,39.2,37.3,29.45,North,0,1.6,3.8,93,0.00,,,0.00,pywws,2013-02-10 19:54:00,
2013-02-10 20:04:00,39.0,37.2,29.45,South,180,0.7,5.4,93,0.00,,,0.00,pywws,2013-02-10 20:04:00,
2013-02-10 20:09:00,39.2,37.3,29.45,SW,225,2.2,6.9,93,0.00,,,0.00,pywws,2013-02-10 20:09:00,
2013-02-10 20:14:00,39.2,37.3,29.45,South,180,3.8,6.9,93,0.00,,,0.00,pywws,2013-02-10 20:14:00,
2013-02-10 20:19:00,39.2,37.3,29.46,SSW,202,2.2,7.6,93,0.00,,,0.00,pywws,2013-02-10 20:19:00,
2013-02-10 20:24:00,39.2,37.3,29.46,NW,315,1.6,4.5,93,0.00,,,0.00,pywws,2013-02-10 20:24:00,
2013-02-10 20:29:00,39.2,37.3,29.46,SW,225,3.1,6.9,93,0.00,,,0.00,pywws,2013-02-10 20:29:00,
2013-02-10 20:34:00,39.2,37.3,29.46,West,270,3.1,6.9,93,0.00,,,0.00,pywws,2013-02-10 20:34:00,
2013-02-10 20:39:00,39.2,37.3,29.46,West,270,1.6,5.4,93,0.00,,,0.00,pywws,2013-02-10 20:39:00,
2013-02-10 20:44:00,39.2,37.3,29.46,South,180,2.2,3.8,93,0.00,,,0.00,pywws,2013-02-10 20:44:00,
2013-02-10 20:49:00,39.0,37.2,29.46,West,270,3.1,5.4,93,0.00,,,0.00,pywws,2013-02-10 20:49:00,
2013-02-10 20:54:00,39.0,37.2,29.46,SSW,202,1.6,4.5,93,0.00,,,0.00,pywws,2013-02-10 20:54:00,
2013-02-10 21:04:00,39.0,37.2,29.46,NE,45,2.2,4.5,93,0.00,,,0.00,pywws,2013-02-10 21:04:00,
2013-02-10 21:09:00,39.0,37.2,29.46,WNW,292,0.7,2.2,93,0.00,,,0.00,pywws,2013-02-10 21:09:00,
2013-02-10 21:14:00,39.0,37.2,29.46,SSE,158,1.6,5.4,93,0.00,,,0.00,pywws,2013-02-10 21:14:00,
2013-02-10 21:19:00,39.0,37.2,29.46,North,0,3.1,7.6,93,0.00,,,0.00,pywws,2013-02-10 21:19:00,
2013-02-10 21:24:00,39.0,37.2,29.47,NE,45,0.7,2.2,93,0.00,,,0.00,pywws,2013-02-10 21:24:00,
2013-02-10 21:29:00,39.0,37.2,29.46,NW,315,1.6,4.5,93,0.00,,,0.00,pywws,2013-02-10 21:29:00,
2013-02-10 21:34:00,39.0,37.2,29.47,West,270,2.2,6.0,93,0.00,,,0.00,pywws,2013-02-10 21:34:00,
2013-02-10 21:39:00,39.0,37.2,29.46,NW,315,1.6,4.5,93,0.00,,,0.00,pywws,2013-02-10 21:39:00,
2013-02-10 21:44:00,39.0,37.2,29.47,SW,225,0.7,3.8,93,0.00,,,0.00,pywws,2013-02-10 21:44:00,
2013-02-10 21:49:00,39.0,37.2,29.47,SW,225,3.1,5.4,93,0.00,,,0.00,pywws,2013-02-10 21:49:00,
2013-02-10 21:54:00,39.0,37.2,29.47,SE,135,0.7,3.1,93,0.00,,,0.00,pywws,2013-02-10 21:54:00,
2013-02-10 22:04:00,39.0,36.9,29.47,NW,315,0.7,3.8,92,0.00,,,0.00,pywws,2013-02-10 22:04:00,
2013-02-10 22:09:00,39.0,36.9,29.48,NW,315,3.1,4.5,92,0.00,,,0.00,pywws,2013-02-10 22:09:00,
2013-02-10 22:14:00,39.0,36.9,29.47,South,180,1.6,6.9,92,0.00,,,0.00,pywws,2013-02-10 22:14:00,
2013-02-10 22:19:00,39.0,36.9,29.48,East,90,0.7,3.1,92,0.00,,,0.00,pywws,2013-02-10 22:19:00,
2013-02-10 22:24:00,39.0,36.6,29.48,East,90,3.8,7.6,91,0.00,,,0.00,pywws,2013-02-10 22:24:00,
2013-02-10 22:29:00,39.0,36.6,29.48,East,90,0.7,3.8,91,0.00,,,0.00,pywws,2013-02-10 22:29:00,
2013-02-10 22:34:00,39.0,36.6,29.48,West,270,4.5,9.8,91,0.00,,,0.00,pywws,2013-02-10 22:34:00,
2013-02-10 22:39:00,39.0,36.6,29.49,South,180,0.7,3.1,91,0.00,,,0.00,pywws,2013-02-10 22:39:00,
2013-02-10 22:44:00,39.0,36.6,29.48,West,270,3.1,6.9,91,0.00,,,0.00,pywws,2013-02-10 22:44:00,
2013-02-10 22:49:00,39.0,36.6,29.49,West,270,3.1,6.0,91,0.00,,,0.00,pywws,2013-02-10 22:49:00,
2013-02-10 22:54:00,38.8,36.7,29.49,SW,225,1.6,5.4,92,0.00,,,0.00,pywws,2013-02-10 22:54:00,
2013-02-10 23:04:00,38.8,36.7,29.49,SW,225,2.2,6.9,92,0.00,,,0.00,pywws,2013-02-10 23:04:00,
2013-02-10 23:09:00,38.8,36.7,29.50,South,180,3.1,7.6,92,0.00,,,0.00,pywws,2013-02-10 23:09:00,
2013-02-10 23:14:00,38.8,36.7,29.50,NW,315,1.6,3.8,92,0.00,,,0.00,pywws,2013-02-10 23:14:00,
2013-02-10 23:19:00,38.8,36.7,29.51,South,180,0.7,1.6,92,0.00,,,0.00,pywws,2013-02-10 23:19:00,
2013-02-10 23:24:00,38.8,36.7,29.51,West,270,3.1,7.6,92,0.00,,,0.00,pywws,2013-02-10 23:24:00,
2013-02-10 23:29:00,38.8,36.7,29.51,South,180,1.6,3.8,92,0.00,,,0.00,pywws,2013-02-10 23:29:00,
2013-02-10 23:34:00,38.8,36.7,29.51,North,-999,0.0,1.6,92,0.00,,,0.00,pywws,2013-02-10 23:34:00,
2013-02-10 23:39:00,38.7,36.5,29.51,NW,315,1.6,5.4,92,0.00,,,0.00,pywws,2013-02-10 23:39:00,
2013-02-10 23:44:00,38.7,36.5,29.51,North,0,2.2,4.5,92,0.00,,,0.00,pywws,2013-02-10 23:44:00,
2013-02-10 23:49:00,38.7,36.5,29.51,SW,225,0.7,3.1,92,0.00,,,0.00,pywws,2013-02-10 23:49:00,
2013-02-10 23:54:00,38.7,36.5,29.51,SW,225,1.6,4.5,92,0.00,,,0.00,pywws,2013-02-10 23:54:00,